Погода в Мозыре

Погода в Мозыре : погода сейчас, прогноз погоды и архив. Всё, что Вы хотите узнать о погоде в Мозыре!

Хотите узнать прогноз погоды в Мозыре? Тогда Вам сюда: Погода в Мозыре

Поиск расширенной информации на нашем сайте:

Другие новости

Новости СМИ2

Главная страница сайта

Новости сайта

02.10.2013

Напоминаем, что на нашем новом сайте вы можете получить высокодетализированные прогнозы погоды по пунктам России, СНГ и мира (включающие важные для авиации метеовеличины, такие как направление и скорость ветра, видимость, явления погоды, количество и форма облачности, нижняя и верхняя граница облачности), а также ознакомиться с разнообразными материалами по авиационной метеорологии и подборкой полезных ссылок на эту тему.

Сайт Метеоцентр.Азия посвящён разработке технологий оптимизации авиаметеорологического обслуживания, включая проектирование и перспективное создание нескольких автоматизированных авиаметеорологических систем:
- система выпуска высокодетальных прогностических карт явлений погоды для нижнего воздушного пространства по России и ближнему зарубежью;
- система верификации прогнозов TAF (выпускаемых синоптиками официальных АМСГ РФ и ближнего зарубежья) и AUTOTAF (выпускаемых сайтом Метеоцентр.Азия) - выявление ошибок, онлайн-сопоставление с фактической погодой METAR, автоматическое внесение коррективов в прогнозы при резком отклонении фактической погоды от прогноза, подсчёт оправдываемости прогнозов по элементам и в целом;
- система обработки, анализа и отображения авиаметеорологической информации для применения провайдерами метеорологической информации.

Рекомендуем: http://kvartiry-posutochno55.ru/ не можешь снять у нас квартиру на сутки в омске.

Погода в Мозыре - сегодня

Время (UTC), дата Ветер
(°,м/с) 
Видим.   Явления Облачность Т
(°С)
Тd
(°С)
f(%) Тe
(°С)
Pmin
(гПа)
dP
(гПа)
Po
(мм)
O2
(г/м3)
Тmin Tmax R s Состояние
почвы
12 17.02.17 220 (ЮЗ) 20000 м    10/8 600 м средняя 
[Sc|Ac As]
+3.1 -2 69 +4  1018.6  -1  746  298           
15 17.02.17 190 (Ю) 12000 м    9/9 300 м 
[Sc]
+3.1 -2.3 68 +4  1018  -0.6  746  297           
18 17.02.17 110 (В) 10 км    9/9 600 м 
[Sc]
+2 -3 69 +3  1017.7  -0.4  746  299    +4.7    19   
21 17.02.17 200 (Ю) 10 км    8/0 средняя 
[Ac und]
+2.1 -3.2 68 +3  1017.3  -0.4  745  298           
00 18.02.17 230 (ЮЗ) 10 км    10/0 средняя 
[Ac As]
+1.8 -1.9 76 +3  1016.9  -0.5  745  298           
03 18.02.17 160 (Ю) 10 км    10/0 средняя 
[Ac As]
+1 -1.9 81 +2  1016.3  -0.6  745  299        19   
06 18.02.17 240 (ЮЗ) 4000 м  дымка  10/8 200 м средняя 
[Frnb|Ac As]
+1 +0.2 94 +2  1016.9  0.6  745  299  +0.8      18  равномерный
мокрый или
старый снег
100% 
09 18.02.17 250 (З) 0300 м  туман{ливн. осадки}  ?/?  
+1 +1 100 +2  1017.7  0.8  746  299           
12 18.02.17 300 (СЗ) 7000 м  дымка{ливн. осадки, туман}  10/10 300 м 
[Sc]
+1.9 +0.6 91 +1  1018.4  0.8  746  298           
15 18.02.17 270 (З) 15000 м    9/9 600 м 
[Sc]
+2.1 -0.1 85 +3  1019.4  747  299      0.0     
18 18.02.17 250 (З) 8000 м  дымка{дождь}  10/10 600 м 
[Sc]
+1.5 +0.4 92 +1  1020.6  1.1  748  300    +2.3  0.4  17   
21 18.02.17 260 (З) 2200 м  дымка  10/10 200 м 
[Sc]
+1.3 +0.8 96 +1  1021.8  1.1  749  300           
00 19.02.17 250 (З) 0700 м  туман  ?/?  
+1 +1 100 1022.4  0.6  749  301           
03 19.02.17 240 (ЮЗ) 1700 м  дымка{туман}  10/10 100 м 
[St]
+0.8 +0.5 98 1022.8  0.4  749  301        16   
06 19.02.17 200 (Ю) 0300 м  туман  ?/?  
+0.7 +0.7 100 1023.3  0.4  750  301  +0.6      16  равномерный
мокрый или
старый снег
100% 
09 19.02.17 250 (З) 7000 м  дымка{туман}  10/8 200 м средняя 
[Frnb|Ac As]
+1.2 +0.7 96 +1  1023.3  0.1  750  301           
12 19.02.17 240 (ЮЗ) 16000 м  {туман}  9/9 600 м 
[Sc]
+2.4 -0.9 79 +1  1022.4  -0.9  749  299           
15 19.02.17 270 (З) 16000 м    9/9 600 м 
[Sc]
+2.4 -1.9 73 1021.3  -1.1  748  299           
18 19.02.17 240 (ЮЗ) 10 км    10/10 600 м 
[Sc]
+1.2 -1.4 83 +1  1020.5  -0.7  748  300    +2.7    14   
21 19.02.17 230 (ЮЗ) 10 км    10/10 600 м 
[Sc]
+0.7 -2.2 81 -1  1019.9  -0.7  747  301           
00 20.02.17 240 (ЮЗ) 10 км    10/10 600 м 
[Sc]
+1.2 -2 79 1019.3  -0.5  747  300           
03 20.02.17 260 (З) 10 км    10/10 600 м 
[Sc]
+1.4 -2.7 74 1017.7  -1.6  746  299        13   
06 20.02.17 210 (ЮЗ) 15000 м    8/8 600 м 
[Sc]
+0.7 -2.6 79 1016.7  -1.1  745  300  +0.6      13  равномерный
мокрый или
старый снег
100% 
09 20.02.17 240 (ЮЗ) 20000 м    4/0 верхняя 
[Ci fib]
+3.9 -2.5 63 +2  1015.3  -0.9  744  296           
12 20.02.17 300 (СЗ) 4{10}  20000 м    6/6 600 м 
[Sc diur, vesp]
+5 -2.2 60 +3  1013.4  -1.9  743  294           
Время (UTC), дата Ветер
(°,м/с) 
Видим.   Явления Облачность Т
(°С)
Тd
(°С)
f(%) Тe
(°С)
Pmin
(гПа)
dP
(гПа)
Po
(мм)
O2
(г/м3)
Тmin Tmax R s Состояние
почвы

Для получения пояснительной информации подведите курсор к названию столбца.

ПОГОДА в Мозыре - архив

Всё, что Вы хотите узнать о погоде в Мозыре - удобно и подробно!

Выберите нужную дату (начиная с 1 января 2015* года) и нажмите кнопку "Найти".
Будут отображены архивные сводки погоды по пункту Мозырь, начиная с указанной даты.


Отображать данные в формате CSV (для использования в таблицах Excel)


Внимание! Наш архив погоды предназначен исключительно для личного некоммерческого использования в познавательных целях. Если Вам необходимы официальные справки о состоянии погоды (для производственных, юридических, коммерческих и т.п. целей), обращайтесь в органы Росгидромета.

*Примечание: данная дата относится к архиву по метеостанциям СССР (Россия, СНГ, Балтия).
Архив по метеостанциям Зарубежной Европы и Азии (кроме Китая) хранится 10 дней, по другим регионам земного шара (Китай, Африка, Америка, Австралия, Океания) - 1 день.

Мозырь - район местоположения метеостанции


Название, широта, долгота, высота метеостанции:
Мозырь 51.9°ш. 29.2°д. 170 м над ур. моря [Беларусь]

Дополнительная информация

В oтличие oт бoльшинства пoгoдных сайтoв мы публикуем пoдрoбную метеoинфoрмацию в детальнoм прoфессиoнальнoм фoрмате.

Характеристики температуры и влажнoсти вoздуха измеряются на высoте 2 м в тени вдали oт зданий и деревьев.
Скoрoсть ветра измеряется на высoте 10 м (на урoвне рoста челoвека скoрoсть ветра ниже в 1.5-2 раза). Если метеoстанция нахoдится в гoрoде или в лесу, тo скoрoсть ветра занижена на 2-4 м/с пo сравнению с oткрытым местoм. Скoрoсть ветра над акватoриями крупных рек и oзёр, а также на вершинах хoлмoв на 2-5 м/с выше, чем в oбычных услoвиях.
Атмoсфернoе давление в разных тoчках местнoсти мoжет значительнo oтличаться oт давления на метеoстанции, в зависимoсти oт услoвий рельефа (при пoдъёме на 10 м давление пoнижается примернo на 1 мм рт.ст.).